STARLINK-32149, 60292

Orbit data source: Space-Track

STARLINK-32149, 60292 is a payload satellite owned by SpaceX/Seattle (US) in LEO that was launched on Sun, 28 Jul 2024 UTC via an FALCON 9 launch vehicle from the Air Force Eastern Test Range (AFETR). Payload-class satellites include a variety of spacecraft equipped with specific instruments for various scientific and technological missions. These include communications satellites like Starlink; space stations such as the ISS; scientific satellites like the Hubble; Earth observation satellites from companies like Planet Labs, Umbra, and HawkEye 360; GPS; miniature CubeSats for education and research; and military/defense satellites.

Loading next visibility...
Identifier
60292, 2024-132Q
Orbit
LEO
Last TLE update
11 hours ago
Origin
Manufacturer
SpaceX/Seattle
Mission
Operational spacecraft
Bus & Motor
STARLINK V2M, Unknown motor
Mass
730 kg wet, ~700 kg dry
Launch date (UTC)
2024-07-28 (11 months ago)
Launch vehicle
FALCON 9
Launch site
Air Force Eastern Test Range (AFETR)
Object type
Payload
Rocket body
Debris
Shape & HBR
Unknown
Radar Cross Section
Large (>1 m²)

Expand to show TLE details & history

TLE from 11 hours ago
0 STARLINK-32149
1 60292U 24132Q   25188.92624864 -.00002337  00000-0 -66787-4 0  9991
2 60292  53.1598 109.5022 0001267  89.9840 270.1306 15.30202596 54084
Epoch: 2025-07-07T22:13Z
TLE epoch observation values (Epoch: 2025-07-07T22:13:47.882Z)
Latitude
-0.00002°
Longitude
-150.0759°
Altitude
476.105 km
Speed
7.629 km/s
True Right ascension
07h 18m 00s
True Declination
0° 00' 00"
Sunlit
Object was in daylight at epoch
Visualization orbit readout
Latitude
-49.85223°
Longitude
145.81916°
Altitude
493.238 km
Speed
7.618 km/s
Apparent Right ascension
06h 11m 28s
Apparent Declination
-54° 26' 46"
Sunlit
Object is in daylight
Visualization observer readout
Local Sidereal Time
20:59:02
Azimuth
131.727° SE
Elevation
-58.653°
Doppler factor
1
Orbital elements
Apogee altitude
476.332 km
Perigee altitude
474.595 km
Semi-major axis
6,853.601 km
Eccentricity
0.00013
Inclination
53.1598°
RAAN
109.5022°
Arg. of periapsis
89.984°
True anomaly
Unknown
Mean anomaly
270.1306°
Eccentric anomaly
Unknown
Mean motion
3.8253 °/min
Orbital period
94.11 mins
BSTAR
-0.000066787
Loading maneuver chart data...
Loading SW <> Apogee altitude chart data...
Loading historical data...
Loading historical data...
Loading historical data...
Loading historical data...
Loading historical data...
Loading historical data...
Loading historical data...

STARLINK-32149 Visibility forecast

Observer location: undefined°, undefined°

Span
Click to sort rows by Start time (UTC) header in descending order
Start Az.
Max El. time (UTC)
Max El. Az.
Max El.
End time (UTC)
End Az.
4 mins2025-07-08 20:20:14.818Z167.56° S2025-07-08 20:22:14.818Z125.978° SE19.492°2025-07-08 20:24:14.818Z87.066° E
5 mins2025-07-08 21:58:14.818Z268.322° W2025-07-08 22:00:14.818Z349.286° N34.259°2025-07-08 22:03:14.818Z39.619° NE
4 mins2025-07-09 02:55:14.818Z352.446° N2025-07-09 02:56:14.818Z15.315° NNE21.751°2025-07-09 02:59:14.818Z78.33° E
6 mins2025-07-09 04:32:14.818Z296.334° NW2025-07-09 04:35:14.818Z194.489° SSW36.62°2025-07-09 04:38:14.818Z147.958° SSE
|